TimeEST,TemperatureF,Dew PointF,Humidity,Sea Level PressureIn,VisibilityMPH,Wind Direction,Wind SpeedMPH,Gust SpeedMPH,PrecipitationIn,Events,Conditions,WindDirDegrees,DateUTC
12:55 AM,37.9,27.9,67,30.00,10.0,Calm,Calm,-,N/A,,Clear,0,2012-12-24 05:55:00
1:55 AM,38.5,28.4,67,30.01,10.0,Calm,Calm,-,N/A,,Clear,0,2012-12-24 06:55:00
2:55 AM,35.4,28.2,75,30.01,10.0,Calm,Calm,-,N/A,,Clear,0,2012-12-24 07:55:00
3:55 AM,38.1,27.0,64,30.01,10.0,Calm,Calm,-,N/A,,Clear,0,2012-12-24 08:55:00
4:55 AM,36.3,28.2,72,30.02,10.0,Calm,Calm,-,N/A,,Clear,0,2012-12-24 09:55:00
5:55 AM,34.7,28.9,79,30.03,10.0,Calm,Calm,-,N/A,,Clear,0,2012-12-24 10:55:00
6:55 AM,35.8,29.3,77,30.04,10.0,ENE,3.5,-,N/A,,Mostly Cloudy,60,2012-12-24 11:55:00
7:55 AM,37.9,30.9,76,30.04,10.0,Calm,Calm,-,N/A,,Mostly Cloudy,0,2012-12-24 12:55:00
8:55 AM,42.3,30.7,64,30.06,10.0,SE,3.5,-,N/A,,Mostly Cloudy,130,2012-12-24 13:55:00
9:44 AM,44.6,32.0,61,30.07,10.0,Calm,Calm,-,N/A,Rain,Light Rain,0,2012-12-24 14:44:00
9:55 AM,44.4,34.2,67,30.07,10.0,Calm,Calm,-,0.00,Rain,Light Rain,0,2012-12-24 14:55:00
10:11 AM,44.6,35.6,71,30.06,10.0,Calm,Calm,-,N/A,,Scattered Clouds,0,2012-12-24 15:11:00
10:55 AM,45.5,34.7,66,30.06,10.0,Calm,Calm,-,0.00,,Partly Cloudy,0,2012-12-24 15:55:00
11:55 AM,46.9,34.0,61,30.02,10.0,Calm,Calm,-,N/A,,Partly Cloudy,0,2012-12-24 16:55:00
12:55 PM,46.9,37.0,68,30.00,10.0,North,3.5,-,N/A,,Scattered Clouds,350,2012-12-24 17:55:00
1:55 PM,47.7,35.8,63,29.96,10.0,Variable,4.6,-,N/A,,Mostly Cloudy,0,2012-12-24 18:55:00
2:55 PM,48.4,34.5,59,29.96,10.0,ENE,3.5,-,N/A,,Mostly Cloudy,70,2012-12-24 19:55:00
3:55 PM,47.3,36.7,67,29.95,10.0,ESE,5.8,-,N/A,,Clear,120,2012-12-24 20:55:00
4:55 PM,46.9,38.7,73,29.94,10.0,SE,5.8,-,N/A,,Scattered Clouds,140,2012-12-24 21:55:00
5:55 PM,46.6,39.2,75,29.91,10.0,SE,5.8,-,N/A,,Overcast,130,2012-12-24 22:55:00
8:55 PM,48.7,42.8,80,29.91,10.0,SSW,3.5,-,0.01,,Overcast,200,2012-12-25 01:55:00
9:55 PM,48.6,42.6,80,29.91,10.0,Calm,Calm,-,N/A,,Overcast,0,2012-12-25 02:55:00
10:16 PM,48.2,42.8,82,29.92,10.0,Calm,Calm,-,N/A,,Overcast,0,2012-12-25 03:16:00
10:55 PM,48.0,42.4,81,29.91,10.0,Calm,Calm,-,N/A,,Overcast,0,2012-12-25 03:55:00
11:55 PM,49.6,42.1,75,29.92,10.0,West,5.8,-,N/A,,Overcast,280,2012-12-25 04:55:00